User: anonymous   Login
Location: Narvik
(68.4360°N, 17.4370°E)
Time: 12:28:31
(UTC+02:00)
Language:

NUDT-PHONESAT - Orbit

View from above orbital plane
View from above orbital plane
View from above satellite
View from above satellite

Ground track
Ground track

The orbit data is extracted from the following two-line orbital elements,

1 40900U 15049B   19293.82261118  .00001740  00000-0  76516-4 0  9996
2 40900  97.4377 301.9659 0014481 106.9852 336.0494 15.23155568226554
Epoch (UTC): 20 October 2019 19:44:33
Eccentricity: 0.0014481
inclination: 97.4377°
perigee height: 486 km
apogee height: 506 km
right ascension of ascending node: 301.9659°
argument of perigee: 106.9852°
revolutions per day: 15.23155568
mean anomaly at epoch: 336.0494°
orbit number at epoch: 22655

The dashed part of the orbit path shows where the satellite is in the earth's shadow,  

DLR